SCP
0 0 0 0 0 0 0 0 0 0 0 0 0 0 0 0 0 0 0 0 0 0 0 0 0 0 0 0 0 0 0 0 0 0 0 0 0 0 0 0 0 0 0 0
0 0 0 0 0 0 0 0 0 0 0 0 0 0 0 0 0 0 0 0 0 0 0 0 0 0 0 0 0 0 0 0 0 0 0 0 0 0 0 0 0 0 0 0
0 0 0 0 0 0 0 0 0 0 0 0 0 0 0 0 0 0 0 0 0 0 0 0 0 0 0 0 0 0 0 0 0 0 0 0 0 0 0 0 0 0 0 0
0 0 0 0 0 0 0 0 0 0 0 0 0 0 0 0 0 0 0 0 0 0 0 0 0 0 0 0 0 0 0 0 0 0 0 0 0 0 0 0 0 0 0 0
0 0 0 0 0 0 0 0 0 0 0 0 0 0 0 0 0 0 0 0 0 0 0 0 0 0 0 0 0 0 0 0 0 0 0 0 0 0 0 0 0 0 0 0
0 0 0 0 0 0 0 0 0 0 0 0 0 0 0 0 0 0 0 0 0 0 0 0 0 0 0 0 0 0 0 0 0 0 0 0 0 0 0 0 0 0 0 0
0 0 0 0 0 0 0 0 0 0 0 0 0 0 0 0 0 0 0 0 0 0 0 0 0 0 0 0 0 0 0 0 0 0 0 0 0 0 0 0 0 0 0 0
0 0 0 0 0 0 0 0 0 0 0 0 0 0 0 0 0 0 0 0 0 0 0 0 0 0 0 0 0 0 0 0 0 0 0 0 0 0 0 0 0 0 0 0
0 0 0 0 0 0 0 0 0 0 0 0 0 0 0 0 0 0 0 0 0 0 0 0 0 0 0 0 0 0 0 0 0 0 0 0 0 0 0 0 0 0 0 0
0 0 0 0 0 0 0 0 0 0 0 0 0 0 0 0 0 0 0 0 0 0 0 0 0 0 0 0 0 0 0 0 0 0 0 0 0 0 0 0 0 0 0 0
0 0 0 0 0 0 0 0 0 0 0 0 0 0 0 0 0 0 0 0 0 0 0 0 0 0 0 0 0 0 0 0 0 0 0 0 0 0 0 0 0 0 0 0
0 0 0 0 0 0 0 0 0 0 0 0 0 0 0 0 0 0 0 0 0 0 0 0 0 0 0 0 0 0 0 0 0 0 0 0 0 0 0 0 0 0 0 0
0 0 0 0 0 0 0 0 0 0 0 0 0 0 0 0 0 0 0 0 0 0 0 0 0 0 0 0 0 0 0 0 0 0 0 0 0 0 0 0 0 0 0 0
0 0 0 0 0 0 0 0 0 0 0 0 0 0 0 0 0 0 0 0 0 0 0 0 0 0 0 0 0 0 0 0 0 0 0 0 0 0 0 0 0 0 0 0
0 0 0 0 0 0 0 0 0 0 0 0 0 0 0 0 0 0 0 0 0 0 0 0 0 0 0 0 0 0 0 0 0 0 0 0 0 0 0 0 0 0 0 0
0 0 0 0 0 0 0 0 0 0 0 0 0 0 0 0 0 0 0 0 0 0 0 0 0 0 0 0 0 0 0 0 0 0 0 0 0 0 0 0 0 0 0 0
0 0 0 0 0 0 0 0 0 0 0 0 0 0 0 0 0 0 0 0 0 0 0 0 0 0 0 0 0 0 0 0 0 0 0 0 0 0 0 0 0 0 0 0
0 0 0 0 0 0 0 0 0 0 0 0 0 0 0 0 0 0 0 0 0 0 0 0 0 0 0 0 0 0 0 0 0 0 0 0 0 0 0 0 0 0 0 0
0 0 0 0 0 0 0 0 0 0 0 0 0 0 0 0 0 0 0 0 0 0 0 0 0 0 0 0 0 0 0 0 0 0 0 0 0 0 0 0 0 0 0 0
0 0 0 0 0 0 0 0 0 0 0 0 0 0 0 0 0 0 0 0 0 0 0 0 0 0 0 0 0 0 0 0 0 0 0 0 0 0 0 0 0 0 0 0
0 0 0 0 0 0 0 0 0 0 0 0 0 0 0 0 0 0 0 0 0 0 0 0 0 0 0 0 0 0 0 0 0 0 0 0 0 0 0 0 0 0 0 0
0 0 0 0 0 0 0 0 0 0 0 0 0 0 0 0 0 0 0 0 0 0 0 0 0 0 0 0 0 0 0 0 0 0 0 0 0 0 0 0 0 0 0 0
0 0 0 0 0 0 0 0 0 0 0 0 0 0 0 0 0 0 0 0 0 0 0 0 0 0 0 0 0 0 0 0 0 0 0 0 0 0 0 0 0 0 0 0
0 0 0 0 0 0 0 0 0 0 0 0 0 0 0 0 0 0 0 0 0 0 0 0 0 0 0 0 0 0 0 0 0 0 0 0 0 0 0 0 0 0 0 0
0 0 0 0 0 0 0 0 0 0 0 0 0 0 0 0 0 0 0 0 0 0 0 0 0 0 0 0 0 0 0 0 0 0 0 0 0 0 0 0 0 0 0 0
0 0 0 0 0 0 0 0 0 0 0 0 0 0 0 0 0 0 0 0 0 0 0 0 0 0 0 0 0 0 0 0 0 0 0 0 0 0 0 0 0 0 0 0
0 0 0 0 0 0 0 0 0 0 0 0 0 0 0 0 0 0 0 0 0 0 0 0 0 0 0 0 0 0 0 0 0 0 0 0 0 0 0 0 0 0 0 0
Wind_Speed
6 2 3 5 6 8 10 9 9 7 10 14 12 13 13 12 12 13 15 14 14 14 14 15 15 15 15 15 15 15 14 14 14 15 16 16 17 17 18 18 17 18 18 18
3 2 4 8 10 9 10 10 11 12 11 6 11 11 13 12 10 13 14 14 14 15 15 16 16 15 15 15 15 15 14 14 15 15 16 16 17 17 17 17 17 17 17 17
3 2 7 7 6 9 7 7 6 7 8 9 11 12 12 9 10 13 13 14 14 14 15 15 15 15 15 15 15 15 14 15 15 15 16 16 17 17 17 17 17 16 16 17
5 5 5 3 2 2 6 7 7 7 6 7 9 10 6 4 10 12 12 13 13 12 13 15 15 14 14 15 14 15 15 15 15 15 16 17 17 16 16 15 15 15 15 17
3 5 7 3 5 5 3 5 6 7 5 6 7 9 1 4 8 10 11 11 12 12 13 14 14 14 15 15 15 15 15 16 16 15 16 17 16 16 15 14 14 14 15 15
2 5 7 4 7 5 3 3 7 6 5 5 6 9 7 6 7 8 10 10 11 12 13 13 14 14 15 15 16 16 17 17 17 17 17 17 17 16 15 14 14 14 14 14
4 6 6 7 10 7 1 2 7 5 2 1 4 5 5 5 6 8 9 10 11 12 12 12 13 14 15 16 16 16 17 17 18 17 16 15 15 15 14 13 13 13 13 12
5 7 4 13 10 5 4 6 4 3 2 2 1 2 3 5 7 8 10 11 12 12 13 13 13 14 16 16 16 17 17 17 17 17 14 13 14 14 13 12 11 11 12 11
7 4 5 12 4 5 5 5 4 4 4 3 2 2 3 5 6 8 9 10 11 12 14 13 13 13 15 16 16 17 17 17 16 16 15 14 13 13 12 11 10 9 8 9
6 4 5 9 6 6 5 6 7 7 6 5 4 2 2 5 6 7 8 9 11 12 13 14 14 14 14 15 16 16 17 16 15 15 16 14 11 10 10 11 10 9 7 7
9 4 4 7 10 8 9 9 9 8 6 6 5 4 2 4 6 7 8 10 10 11 13 14 15 15 14 15 15 16 16 15 14 14 14 14 13 12 10 10 10 10 9 7
4 6 4 7 11 12 11 10 9 9 8 6 4 4 1 3 5 6 8 10 11 12 13 14 14 15 15 15 15 16 15 14 13 13 13 12 12 12 14 14 13 12 12 9
4 6 7 12 12 10 10 11 9 8 8 7 5 3 1 3 5 7 8 10 11 12 12 13 13 14 15 16 16 16 15 14 13 13 12 12 12 11 12 13 12 11 11 9
11 12 10 9 9 11 12 12 11 10 8 6 5 3 1 3 5 6 8 9 10 11 11 12 13 14 16 16 15 15 14 14 13 12 12 12 11 11 10 9 9 8 9 8
11 6 10 13 13 13 13 12 11 9 7 6 4 2 1 3 5 7 8 9 9 9 10 12 13 15 16 15 15 14 12 11 12 11 12 13 12 11 10 9 8 7 7 6
12 11 14 15 14 14 13 12 10 9 7 6 4 2 1 3 4 5 6 7 8 9 11 12 13 15 15 14 14 12 11 14 14 11 11 12 11 11 11 10 9 8 7 6
16 14 14 14 14 14 13 12 11 10 8 7 4 2 2 3 3 5 7 7 7 7 8 10 13 15 14 14 13 10 9 11 14 11 11 11 10 10 10 10 9 8 7 8
12 14 16 17 16 14 13 11 10 10 8 7 5 3 0 3 5 7 8 8 8 7 9 12 14 14 13 13 12 9 9 9 10 11 11 11 10 10 10 10 9 9 8 8
11 13 13 13 13 13 13 12 11 9 8 7 6 4 1 2 4 6 7 7 8 9 11 14 18 15 13 15 14 9 9 9 10 10 10 12 10 9 9 9 9 9 8 8
10 12 13 13 12 12 12 11 11 10 8 7 6 4 3 1 3 4 5 4 4 6 10 12 13 12 11 13 13 9 9 10 10 10 10 10 10 9 9 9 9 9 8 8
12 12 13 13 12 12 13 13 12 11 9 7 6 5 3 0 2 3 4 3 5 9 10 11 10 9 10 11 10 8 9 10 10 10 10 9 9 9 9 8 8 8 8 8
13 13 13 14 14 13 12 12 11 10 9 8 6 5 3 1 1 2 1 3 7 10 8 7 9 12 13 12 8 8 9 10 10 10 10 9 9 8 8 8 8 8 8 8
14 13 14 14 14 14 13 11 10 10 10 9 8 6 3 2 1 2 2 4 6 9 7 6 11 15 15 9 8 9 9 10 10 11 11 11 10 10 9 9 9 8 8 8
14 14 12 11 12 13 13 11 9 8 7 7 5 4 3 3 2 2 4 7 9 9 6 7 11 13 11 7 8 8 9 9 10 11 11 12 11 10 10 10 9 9 9 10
13 13 13 13 12 11 11 11 9 8 7 6 6 5 5 3 2 1 3 4 7 7 5 7 10 10 8 7 8 8 8 8 10 10 11 11 11 11 11 11 11 11 9 9
14 12 11 12 10 9 10 10 10 10 9 7 7 6 5 4 3 2 2 3 3 4 4 4 6 6 6 7 8 8 8 9 10 11 11 11 12 12 12 13 14 13 12 11
12 12 11 10 9 9 10 11 10 10 11 9 8 7 6 5 4 3 2 2 2 2 3 3 4 5 5 6 7 7 7 8 9 10 10 10 11 11 12 13 12 12 12 14
Wind_Direction
273 272 247 257 246 218 222 246 265 298 303 320 337 335 338 344 343 345 345 347 347 345 344 342 340 338 338 336 335 333 332 333 334 334 332 332 333 335 335 333 333 331 330 330
265 202 244 263 251 238 240 249 258 281 298 337 325 326 334 346 344 341 343 343 345 343 340 339 337 335 333 330 330 328 329 329 330 331 330 330 330 333 334 332 332 332 329 329
274 270 289 264 234 206 205 219 240 282 322 325 320 336 341 343 344 341 339 339 341 340 337 333 331 329 327 327 326 325 326 324 325 326 327 327 327 330 333 331 331 329 328 330
292 305 288 96 98 207 232 242 230 259 288 315 330 332 343 360 342 339 335 335 334 335 331 326 326 324 323 324 322 323 321 321 323 324 323 322 324 325 328 329 330 326 329 333
290 275 277 158 173 172 212 266 212 231 277 318 335 308 110 34 343 335 332 331 332 332 327 324 324 325 324 323 325 324 321 321 321 318 317 319 319 318 326 328 325 325 331 333
231 270 283 114 140 140 160 217 175 215 285 323 331 320 10 1 340 334 332 333 332 330 330 328 328 327 323 325 327 328 326 322 319 319 322 323 320 321 322 323 322 325 329 334
220 252 276 118 138 155 252 118 163 211 268 335 321 337 344 344 343 339 332 333 332 332 331 332 331 327 324 326 329 329 323 320 321 325 327 324 320 318 320 320 321 325 328 334
198 247 258 142 150 191 125 131 157 170 135 133 319 2 355 352 342 340 334 337 338 333 330 331 333 329 325 326 329 325 323 324 327 328 326 321 323 322 320 319 322 323 327 334
229 248 128 170 160 150 134 141 149 140 128 128 122 45 2 346 340 337 332 335 336 331 327 331 338 333 325 326 327 325 326 329 331 328 325 328 331 326 325 323 321 317 322 328
263 229 184 186 164 147 135 120 117 117 126 132 125 93 11 338 340 332 335 336 334 332 330 333 337 333 329 328 329 328 330 331 331 330 326 327 330 328 326 323 322 327 335 332
248 226 174 201 187 152 123 120 118 116 125 127 129 111 23 334 334 329 332 336 335 334 330 332 334 332 335 337 334 333 333 333 335 329 329 335 338 337 334 335 346 349 341 333
228 165 166 157 159 146 143 142 141 141 132 116 113 115 41 327 327 330 335 335 334 335 333 332 332 333 338 340 339 338 338 340 335 335 339 338 336 339 347 352 357 6 350 345
132 123 104 121 128 138 137 136 143 143 139 134 130 115 30 323 330 339 338 338 336 332 331 329 331 338 343 342 341 343 344 343 339 342 347 344 344 342 339 345 357 16 3 359
142 129 126 143 142 140 131 130 130 121 122 129 129 105 14 327 342 342 338 333 328 328 332 333 336 343 345 342 343 345 349 349 346 349 351 348 348 343 341 343 351 7 11 8
161 134 136 138 133 132 134 140 141 138 144 132 118 118 341 334 337 331 330 329 328 330 340 338 337 342 345 343 344 345 355 354 349 353 354 357 0 355 352 354 4 6 10 11
142 125 133 140 146 148 153 161 158 154 156 150 161 174 273 300 310 323 328 332 335 335 337 335 334 338 342 343 344 348 358 356 357 356 358 4 6 4 1 2 11 9 11 3
142 154 160 158 162 162 170 173 163 156 157 160 167 173 262 309 342 350 341 340 330 324 331 340 336 335 343 344 344 349 353 356 0 1 2 7 5 5 4 7 11 10 8 1
168 164 165 165 164 163 165 160 150 152 156 156 159 172 210 15 4 341 336 335 340 345 357 349 337 340 346 346 351 353 350 354 359 3 360 7 2 3 2 8 9 7 6 8
153 147 149 154 155 152 152 151 149 150 147 156 162 159 133 25 345 324 326 335 353 355 350 334 334 344 345 350 358 354 350 353 357 1 358 5 1 359 1 2 1 1 1 0
136 136 136 134 137 140 139 142 145 149 156 161 159 162 157 50 337 319 316 329 352 325 316 329 338 341 343 348 357 355 355 353 354 357 354 359 2 355 354 354 351 350 352 351
139 137 136 138 138 139 143 148 153 158 162 169 171 167 158 270 320 310 315 345 357 335 337 339 339 340 351 352 352 355 356 353 353 353 350 349 355 354 348 345 339 338 337 334
141 145 146 147 145 145 151 156 159 156 162 171 174 175 176 162 12 340 296 322 327 336 346 341 334 351 1 355 352 354 354 353 352 350 349 344 342 340 338 334 328 325 323 318
150 153 153 156 152 148 152 159 163 164 171 177 179 181 167 108 30 339 327 326 326 340 352 344 342 356 1 356 352 354 354 353 351 352 350 346 340 331 323 316 310 305 303 302
149 152 149 141 136 145 160 169 169 171 174 181 183 184 177 171 178 226 289 312 330 345 353 348 352 358 1 354 352 352 353 352 349 349 350 346 340 333 329 322 311 302 293 288
145 142 143 150 158 166 164 162 163 171 181 190 193 198 203 199 198 275 307 320 332 344 346 353 2 3 2 352 352 350 349 350 348 349 349 345 339 336 337 340 334 326 315 301
151 155 160 167 166 162 162 165 175 181 185 187 191 194 192 189 208 238 278 300 321 345 349 352 3 3 0 353 351 349 348 349 351 353 350 346 341 337 337 343 343 341 339 331
149 150 152 163 172 170 171 176 178 182 187 186 186 187 190 188 192 200 227 273 302 331 348 356 1 3 1 357 350 348 346 346 350 352 348 344 339 335 330 335 339 339 341 342